Location: Nar�tz
(47.1833°N, 11.1333°E)
Time: 11:44:11
(UTC+00:00)

Daily predictions for brighter satellites

Satellite Brightness Start Highest point End
(mag) Time Altitude Azimuth Time Altitude Azimuth Time Altitude Azimuth
CZ-2D R/B 3.4 17:26:52 10° S 17:30:39 81° WSW 17:34:29 10° NNW
Cosmos 1461 3.2 17:26:05 10° SSW 17:30:45 66° ESE 17:35:29 10° NE
FALCON 9 DEB 4.1 17:28:10 10° NW 17:31:22 35° NNE 17:34:32 10° E
COSMO-SKYMED 1 2.6 17:27:22 10° NNE 17:31:44 83° ESE 17:36:04 10° SSW
Cosmos 1980 Rocket 2.9 17:27:00 10° SW 17:32:36 60° WNW 17:38:16 10° NNE
Cosmos 2184 Rocket 4.0 17:29:57 10° S 17:35:58 59° E 17:42:03 10° NNE
Abrixas rocket 1.5 17:38:14 10° WSW 17:40:43 71° SSE 17:43:03 11° ENE
Helios 1A Rocket 3.5 17:37:05 10° SE 17:40:48 35° ENE 17:44:30 10° N
HJ-1C 4.0 17:39:58 10° SE 17:43:01 35° ENE 17:46:05 10° N
Cosmos 2322 Rocket 2.5 17:40:43 10° S 17:46:00 45° ESE 17:51:19 10° NE
Meteor 1-25 Rocket 4.3 17:40:25 10° S 17:46:07 64° E 17:51:45 10° NNE
Cosmos 44 Rocket 3.5 17:41:08 10° NNW 17:46:22 63° NE 17:51:31 10° SE
Cosmos 1633 Rocket 3.1 17:42:14 10° S 17:46:34 59° E 17:50:57 10° NNE
Cosmos 1707 Rocket 3.6 17:42:15 10° N 17:46:40 85° W 17:51:01 10° S
MOS 1 Rocket 4.1 17:44:57 10° N 17:49:53 62° WNW 17:55:04 10° SSW
Okean 1-7 4.3 17:47:24 10° NNE 17:50:46 21° ENE 17:54:05 10° ESE
FALCON 9 DEB 4.4 17:49:58 10° WNW 17:52:47 28° N 17:55:32 10° NE
FALCON 9 DEB 4.4 17:50:18 10° WNW 17:53:11 30° N 17:56:00 10° NE
CZ-2C R/B 4.1 17:47:57 10° S 17:53:36 56° W 17:59:03 10° NNW
CZ-4B R/B 2.1 17:51:09 10° N 17:54:07 51° WNW 17:57:06 10° SSW
SJ-6B 4.4 17:52:51 12° ESE 17:55:18 19° ENE 17:58:09 10° NNE
USA 186 3.4 17:59:43 11° NE 17:59:43 11° NE 18:00:03 10° NE
Meteor 1-18 Rocket 4.3 17:55:17 10° N 18:01:14 67° ENE 18:07:06 10° SSE
Okean-O 2.7 18:00:13 10° SSE 18:04:39 83° WSW 18:09:07 10° NNW
Cosmos 2219 Rocket 3.8 18:02:27 10° SE 18:04:11 13° ESE 18:04:11 13° ESE
Okean 1 3.2 18:01:38 10° N 18:05:41 75° E 18:09:42 10° SSE
CZ-4 R/B 1.9 18:04:08 10° S 18:07:55 59° W 18:11:48 10° NNW
Cosmos 2341 Rocket 4.4 18:03:37 10° SSE 18:09:22 39° E 18:15:07 10° NNE
SL-16 R/B 2.2 18:04:04 10° SSW 18:09:44 84° ESE 18:15:27 10° NNE
USA 305 4.1 18:05:50 10° W 18:09:49 36° N 18:13:17 13° NE
Cosmos 2263 Rocket 3.6 18:06:42 10° NW 18:11:53 40° WSW 18:17:02 10° S
ERBS 3.2 18:11:00 10° WSW 18:14:12 45° NNW 18:17:00 13° NE
ARGOS 3.2 18:09:58 10° SSE 18:15:25 88° WSW 18:20:53 10° NNW
Cosmos 1515 3.8 18:13:05 10° NNW 18:16:56 78° W 18:20:43 10° S
Gbstr 26 Del rocket 3.7 18:14:37 10° W 18:18:59 55° N 18:23:00 17° ENE
USA 307 4.1 18:16:41 10° WNW 18:20:39 35° N 18:23:39 15° NE
ATLAS CENTAUR R/B 1.6 18:18:51 10° S 18:22:11 36° ESE 18:23:27 27° ENE
Cosmos 2084 Rocket 3.4 18:18:17 10° NW 18:22:39 88° ENE 18:26:12 16° SE
SL-4 R/B 2.4 18:20:10 10° WNW 18:23:33 41° N 18:25:02 26° ENE
USA 306 4.1 18:20:35 10° WNW 18:24:31 34° N 18:27:19 17° NE
Cosmos 1470 Rocket 3.5 18:20:15 10° S 18:24:43 84° E 18:29:13 10° N
SL-08 RB Rocket 3.6 18:20:48 10° SSE 18:25:18 84° ENE 18:29:54 10° NNW
CZ-2C R/B 2.6 18:21:04 10° NNE 18:26:35 71° ESE 18:31:57 10° S
Cosmos 2237 4.2 18:21:25 10° SSW 18:27:03 63° ESE 18:32:45 10° NNE
Cosmos 1689 Rocket 2.8 18:25:01 10° N 18:27:50 53° WNW 18:30:38 10° SSW
USA 308 4.1 18:27:20 10° WNW 18:31:15 34° N 18:33:47 18° NE
Cosmos 1992 Rocket 4.0 18:28:20 10° SSW 18:33:35 89° E 18:38:51 10° NNE
Okean 3 4.4 18:30:50 10° NNE 18:34:27 28° ENE 18:34:27 28° ENE
ASTEX 1 4.0 18:30:32 10° NNE 18:34:55 32° E 18:36:25 27° ESE
SAR-Lupe-4 4.2 18:31:58 10° N 18:35:30 58° WNW 18:39:00 10° SSW
Cosmos 1703 Rocket 3.5 18:32:20 10° N 18:36:44 61° ENE 18:40:23 14° SSE
H-2A R/B 3.5 18:34:10 10° SSW 18:39:16 41° W 18:44:25 10° NNW
Meteor 2-12 Rocket 4.5 18:35:23 10° S 18:41:27 83° W 18:47:35 10° N
DMSP B5D2-2 4.0 18:36:26 10° NNE 18:41:39 63° ESE 18:46:48 10° S
USA 234 3.3 18:36:59 16° ENE 18:42:16 60° SE 18:48:43 10° SW
FALCON 9 DEB 4.4 18:41:57 10° WNW 18:44:44 27° N 18:45:16 26° NNE
SeaSat 1 2.5 18:39:53 10° NNE 18:44:50 79° WNW 18:49:46 10° SW
Cosmos 1933 Rocket 3.5 18:41:24 10° S 18:45:45 88° WNW 18:50:09 10° N
CSL-04 Rocket 4.2 18:40:46 10° S 18:46:16 62° WSW 18:51:45 10° NNW
OBJECT-B 1.8 18:47:23 33° NNE 18:47:23 33° NNE 18:49:34 10° N
Aureole 2 Rocket 3.0 18:44:05 10° NW 18:46:29 37° WSW 18:47:11 29° SSW
Cosmos 1844 Rocket 2.6 18:41:59 10° NNW 18:47:36 89° ENE 18:51:49 18° SSE
Resurs 01 Rocket 3.1 18:49:22 22° NE 18:49:22 22° NE 18:51:53 10° N
ERS-2 3.6 18:45:35 10° N 18:49:00 38° WNW 18:52:23 10° SW
Meteor 1-5 Rocket 4.0 18:44:27 10° S 18:49:46 71° E 18:55:15 10° NNE
Cosmos 2242 Rocket 3.6 18:45:21 10° N 18:49:54 87° W 18:54:22 10° S
Cosmos 1666 2.5 18:47:40 10° S 18:51:19 61° E 18:55:01 10° NNE
Cosmos 2333 4.4 18:46:30 10° S 18:51:52 47° ESE 18:57:18 10° NE
Cosmos 1959 Rocket 4.5 18:48:27 10° SSE 18:54:19 52° E 19:00:14 10° NNE
Cosmos 1844 3.6 18:50:22 10° NNW 18:56:12 86° ENE 18:59:37 25° SSE
FALCON 9 DEB 4.4 18:55:22 10° NW 18:58:05 28° N 18:58:05 28° N
Cosmos 2360 Rocket 2.2 18:54:53 10° SSW 19:00:32 86° WNW 19:06:16 10° NNE
Cosmos 1354 Rocket 4.4 18:56:43 10° NNW 19:01:55 63° WSW 19:06:39 12° S
Cosmos 2278 Rocket 3.2 18:57:20 10° N 19:02:11 28° NE 19:02:28 28° NE
Meteor 2-4 Rocket 4.2 18:59:16 10° NNW 19:05:02 64° W 19:10:51 10° S
GP-B 3.9 19:02:22 10° SSW 19:06:42 53° W 19:11:04 10° N
Cosmos 2333 Rocket 2.3 19:01:46 10° S 19:07:13 50° ESE 19:08:25 42° ENE
FALCON 9 DEB 3.5 19:05:05 10° WNW 19:08:06 62° W 19:08:06 62° W
SPOT 3 Rocket 4.0 19:08:58 42° ENE 19:08:58 42° ENE 19:13:42 10° N
Cosmos 1241 Rocket 4.5 19:02:49 10° NNW 19:09:27 75° NE 19:11:51 42° SE
Cosmos 1777 Rocket 3.8 19:07:26 10° NNW 19:12:43 77° ENE 19:13:54 54° SE
Abrixas rocket 4.5 19:12:23 10° W 19:13:15 19° WNW 19:13:15 19° WNW
Resurs 1-3 3.6 19:17:59 65° NE 19:17:59 65° NE 19:21:58 10° N
Ariane Rocket 3.0 19:19:26 38° S 19:21:25 82° WSW 19:26:34 10° NNW
Cosmos 1943 Rocket 4.3 19:23:27 10° N 19:25:32 12° NNE 19:25:32 12° NNE
SJ 16-02 2.8 19:22:03 10° N 19:24:28 27° NNE 19:24:28 27° NNE
Okean 1-7 4.2 19:24:25 10° NNW 19:28:32 41° W 19:31:28 17° SSW
SJ-6B 3.8 19:28:28 36° SW 19:29:38 47° W 19:33:34 10° NNW
Cosmos 2322 Rocket 3.8 19:25:06 10° WSW 19:30:11 34° NW 19:35:17 10° NNE
MOS 1 4.4 19:27:32 30° S 19:30:27 73° WSW 19:36:09 10° NNW
SL-8 Rocket 4.3 19:28:31 10° SSW 19:34:43 67° W 19:40:55 10° N
COSMOS 2428 4.5 19:31:25 10° S 19:32:47 18° S 19:32:47 18° S
Meteor 1-11 Rocket 3.7 19:31:24 10° SSW 19:37:09 83° WNW 19:42:48 10° N
Meteor 1-23 Rocket 4.1 19:32:39 10° N 19:38:05 76° ENE 19:38:05 76° ENE
SME Rocket 4.4 19:29:56 10° NNE 19:38:35 74° WNW 19:44:06 10° SSW
Cosmos 1869 Rocket 4.1 19:39:35 56° W 19:39:52 57° WNW 19:44:13 10° N
ATLAS 5 CENTAUR R/B 4.4 19:38:20 10° WNW 19:42:50 17° NW 19:44:42 13° N
SL-08 R/B 4.4 19:46:55 71° SSE 19:47:37 80° E 19:54:07 10° N
Cosmos 2219 Rocket 3.0 19:42:44 10° SSW 19:56:15 - NNE 19:46:09 39° SSW
Cosmos 2366 rocket 4.3 19:42:52 10° SSW 19:49:06 65° WNW 19:55:27 10° N
ATLAS CENTAUR R/B 3.6 19:58:03 10° W 19:59:42 20° WNW 19:59:42 20° WNW
Cosmos 2322 4.2 19:59:41 10° SW 20:05:19 58° WNW 20:11:00 10° NNE
Gbstr 26 Del rocket 4.2 20:01:38 10° WNW 20:05:31 49° NNW 20:05:31 49° NNW
Cosmos 2369 Rocket 4.5 20:04:17 10° N 20:05:39 12° NNE 20:05:39 12° NNE
Cosmos 1727 Rocket 4.4 20:03:37 10° NNW 20:09:41 58° W 20:10:41 52° SW
Resurs 01 Rocket 3.8 20:26:55 23° NW 20:26:55 23° NW 20:28:49 10° NNW
USA 234 3.7 20:24:20 53° N 20:25:17 57° NNW 20:31:39 10° W
USA 281 4.4 20:38:27 31° NNE 20:38:27 31° NNE 20:42:18 10° NNW
Cosmos 2278 Rocket 3.6 20:41:05 10° NNW 20:44:20 34° NW 20:44:20 34° NW
Cosmos 2333 Rocket 3.8 20:46:38 10° WSW 20:56:42 11° NNE 20:56:50 10° NNE
SJ 16-02 4.5 21:01:06 10° NW 21:01:29 12° NW 21:01:29 12° NW
Cosmos 1943 Rocket 4.4 21:05:27 10° NNW 21:07:04 19° N 21:07:04 19° N
